CW5066 Weather Reports


Display with metric or nautical units.
time (UTC)temp
F
wind
direction
speed
MPH
gust
MPH
rain 1hr
in
rain 24hr
in
rain mn
in
humidity
%
barometer
mb
20170919114516 48 147 2.0 6.0 0.00 0.00 0.00 27 1016.5
20170919113516 48 117 3.0 9.0 0.00 0.00 0.00 27 1016.5
20170919112516 48 110 4.0 6.0 0.00 0.00 0.00 28 1016.6
20170919111516 48 103 3.0 6.0 0.00 0.00 0.00 27 1016.6
20170919110516 48 104 4.0 7.0 0.00 0.00 0.00 27 1016.2
20170919105516 48 88 3.0 6.0 0.00 0.00 0.00 27 1016.9
20170919104516 48 78 2.0 6.0 0.00 0.00 0.00 26 1016.9
20170919103516 48 49 3.0 8.0 0.00 0.00 0.00 26 1017.0
20170919102516 48 86 4.0 8.0 0.00 0.00 0.00 28 1017.0
20170919101516 48 66 5.0 10.0 0.00 0.00 0.00 28 1017.1
20170919100516 48 67 3.0 6.0 0.00 0.00 0.00 27 1017.2
20170919095516 48 64 4.0 10.0 0.00 0.00 0.00 27 1017.2
20170919094516 48 66 1.0 5.0 0.00 0.00 0.00 26 1017.2
20170919093516 48 136 3.0 6.0 0.00 0.00 0.00 27 1017.1
20170919092516 48 116 3.0 7.0 0.00 0.00 0.00 27 1016.5
20170919091516 49 95 4.0 9.0 0.00 0.00 0.00 27 1017.3
20170919090516 49 79 3.0 7.0 0.00 0.00 0.00 26 1016.9
20170919085516 50 64 2.0 8.0 0.00 0.00 0.00 25 1017.5
20170919084515 51 224 5.0 17.0 0.00 0.00 0.00 24 1018.1
20170919083516 51 231 6.0 16.0 0.00 0.00 0.00 24 1018.1
20170919082516 52 227 9.0 19.0 0.00 0.00 0.00 24 1018.3
20170919081515 51 223 8.0 17.0 0.00 0.00 0.00 25 1017.9
20170919080516 49 233 6.0 15.0 0.00 0.00 0.00 28 1017.4
20170919075515 49 263 2.0 8.0 0.00 0.00 0.00 30 1017.6
20170919074515 49 290 1.0 6.0 0.00 0.00 0.00 30 1017.9
20170919073515 49 237 2.0 6.0 0.00 0.00 0.00 30 1018.2
20170919072515 49 57 2.0 8.0 0.00 0.00 0.00 32 1018.6
20170919071517 50 350 4.0 14.0 0.00 0.00 0.00 32 1018.1
20170919070516 50 242 4.0 15.0 0.00 0.00 0.00 33 1018.9
20170919065515 50 248 2.0 6.0 0.00 0.00 0.00 35 1018.5
20170919064516 50 236 1.0 7.0 0.00 0.00 0.00 37 1018.7
20170919063516 51 289 2.0 5.0 0.00 0.00 0.00 37 1018.9
20170919062515 51 241 2.0 9.0 0.00 0.00 0.00 37 1019.1
20170919061515 51 218 5.0 11.0 0.00 0.00 0.00 37 1019.4
20170919060515 51 234 2.0 5.0 0.00 0.00 0.00 38 1018.9
20170919055516 52 219 3.0 10.0 0.00 0.00 0.00 37 1019.7
20170919054516 51 209 4.0 9.0 0.00 0.00 0.00 38 1020.0
20170919053516 51 214 1.0 5.0 0.00 0.00 0.00 38 1019.7
20170919052516 52 287 0.0 2.0 0.00 0.00 0.00 37 1019.8
20170919051517 52 240 1.0 8.0 0.00 0.00 0.00 37 1020.6
20170919050516 52 171 2.0 4.0 0.00 0.00 0.00 36 1020.1
20170919045516 53 174 3.0 9.0 0.00 0.00 0.00 36 1020.3
20170919044516 52 168 3.0 9.0 0.00 0.00 0.00 36 1020.6
20170919043516 52 195 1.0 3.0 0.00 0.00 0.00 37 1020.2
20170919042516 52 179 0.0 3.0 0.00 0.00 0.00 37 1020.3
20170919041517 52 137 2.0 4.0 0.00 0.00 0.00 37 1019.7
20170919040516 52 212 0.0 3.0 0.00 0.00 0.00 37 1019.8
20170919035516 52 174 1.0 3.0 0.00 0.00 0.00 38 1020.0
20170919034516 52 241 1.0 5.0 0.00 0.00 0.00 37 1020.1
20170919033516 53 280 3.0 6.0 0.00 0.00 0.00 36 1020.1
20170919032516 54 261 2.0 5.0 0.00 0.00 0.00 36 1020.1
20170919031516 55 305 1.0 8.0 0.00 0.00 0.00 35 1020.3
20170919030516 55 319 3.0 10.0 0.00 0.00 0.00 36 1020.4
20170919025516 54 323 4.0 9.0 0.00 0.00 0.00 36 1019.9
20170919024516 55 327 4.0 10.0 0.00 0.00 0.00 36 1020.0
20170919023516 54 339 2.0 6.0 0.00 0.00 0.00 38 1019.6
20170919022516 53 10 3.0 6.0 0.00 0.00 0.00 40 1019.6
20170919021515 53 68 2.0 4.0 0.00 0.00 0.00 39 1019.6
20170919020516 54 107 2.0 3.0 0.00 0.00 0.00 39 1019.7
20170919015515 54 78 2.0 4.0 0.00 0.00 0.00 39 1019.8
20170919014516 54 85 2.0 4.0 0.00 0.00 0.00 38 1019.7
20170919013515 55 89 2.0 4.0 0.00 0.00 0.00 37 1019.7
20170919012516 56 73 2.0 5.0 0.00 0.00 0.00 36 1020.4
20170919011515 58 99 1.0 5.0 0.00 0.00 0.00 35 1021.1
20170919010517 59 107 1.0 4.0 0.00 0.00 0.00 33 1021.7
20170919005515 62 93 1.0 7.0 0.00 0.00 0.00 33 1022.4
20170919004515 64 97 1.0 6.0 0.00 0.00 0.00 29 1023.0
20170919003516 64 110 1.0 4.0 0.00 0.00 0.00 29 1023.7
20170919002515 65 107 2.0 7.0 0.00 0.00 0.00 28 1023.3
20170919001516 64 41 2.0 5.0 0.00 0.00 0.00 28 1023.3
20170919000515 64 247 2.0 6.0 0.00 0.00 0.00 23 1023.1
20170918235515 64 265 2.0 9.0 0.00 0.00 0.00 24 1023.3
20170918234515 63 217 5.0 13.0 0.00 0.00 0.00 24 1023.3
20170918233515 63 239 6.0 11.0 0.00 0.00 0.00 24 1022.7
20170918232516 64 240 5.0 10.0 0.00 0.00 0.00 23 1023.6
20170918231515 63 250 7.0 13.0 0.00 0.00 0.00 24 1023.8
20170918230515 64 244 4.0 12.0 0.00 0.00 0.00 24 1023.7
20170918225515 63 240 9.0 19.0 0.00 0.00 0.00 24 1023.2
20170918224515 63 246 5.0 14.0 0.00 0.00 0.00 24 1022.7
20170918223515 64 227 5.0 18.0 0.00 0.00 0.00 24 1023.4
20170918222515 63 244 6.0 16.0 0.00 0.00 0.00 24 1023.4
20170918221515 63 243 8.0 13.0 0.00 0.00 0.00 24 1023.4
20170918220516 63 258 6.0 22.0 0.00 0.00 0.00 25 1023.6
20170918215515 64 263 4.0 11.0 0.00 0.00 0.00 25 1024.3
20170918214515 64 235 6.0 14.0 0.00 0.00 0.00 23 1023.7
20170918213515 63 203 9.0 18.0 0.00 0.00 0.00 23 1023.1
20170918212515 62 257 2.0 13.0 0.00 0.00 0.00 25 1023.2
20170918211516 63 261 7.0 13.0 0.00 0.00 0.00 24 1024.0
20170918210516 62 228 5.0 17.0 0.00 0.00 0.00 24 1024.3
20170918205515 62 301 5.0 16.0 0.00 0.00 0.00 25 1024.3
20170918204515 62 237 6.0 16.0 0.00 0.00 0.00 25 1024.5
20170918203515 62 251 7.0 14.0 0.00 0.00 0.00 24 1024.4
20170918202515 61 283 6.0 16.0 0.00 0.00 0.00 26 1024.1
20170918201515 61 318 5.0 16.0 0.00 0.00 0.00 26 1024.9
20170918200515 61 249 3.0 14.0 0.00 0.00 0.00 27 1025.1
20170918195517 60 217 7.0 14.0 0.00 0.00 0.00 26 1025.3
20170918194517 60 280 4.0 12.0 0.00 0.00 0.00 28 1024.7
20170918193517 61 298 4.0 13.0 0.00 0.00 0.00 25 1024.8
20170918192517 60 252 6.0 16.0 0.00 0.01 0.00 31 1024.5
20170918191517 59 216 3.0 15.0 0.00 0.01 0.00 30 1024.6
20170918190518 58 268 7.0 17.0 0.00 0.01 0.00 29 1024.7
20170918185517 58 304 4.0 11.0 0.00 0.01 0.00 31 1024.8
20170918184517 57 313 5.0 15.0 0.00 0.01 0.00 30 1025.0
20170918183517 57 297 8.0 18.0 0.00 0.01 0.00 30 1025.2
20170918182517 56 227 9.0 21.0 0.00 0.01 0.00 29 1025.3
20170918181517 57 244 7.0 17.0 0.00 0.01 0.00 28 1025.4
20170918180517 56 266 5.0 11.0 0.00 0.01 0.00 32 1025.8
20170918175516 55 246 6.0 21.0 0.00 0.01 0.00 28 1025.3
20170918174517 56 230 8.0 15.0 0.00 0.01 0.00 28 1025.2
20170918173516 55 238 5.0 14.0 0.00 0.01 0.00 30 1025.2
20170918172517 54 263 6.0 16.0 0.00 0.01 0.00 31 1025.5
20170918171517 54 231 7.0 17.0 0.00 0.01 0.00 31 1025.4
20170918170516 54 246 6.0 17.0 0.00 0.01 0.00 32 1025.6
20170918165516 53 214 6.0 16.0 0.00 0.01 0.00 33 1025.6
20170918164517 53 214 10.0 18.0 0.00 0.01 0.00 34 1025.0
20170918163517 52 204 3.0 10.0 0.00 0.01 0.00 38 1025.8
20170918162516 52 199 7.0 13.0 0.00 0.01 0.00 38 1025.2
20170918161517 51 189 5.0 16.0 0.00 0.01 0.00 40 1025.3
20170918160517 50 208 7.0 13.0 0.00 0.01 0.00 41 1025.3
20170918155517 50 201 8.0 14.0 0.00 0.01 0.00 42 1025.2
20170918154517 49 199 5.0 12.0 0.00 0.01 0.00 44 1024.8
20170918153516 49 204 4.0 9.0 0.00 0.01 0.00 47 1024.9
20170918152516 48 188 5.0 9.0 0.00 0.01 0.00 48 1025.1
20170918151516 48 201 3.0 7.0 0.00 0.01 0.00 49 1024.5
20170918150517 48 168 2.0 7.0 0.00 0.01 0.00 50 1024.6
20170918145516 46 186 4.0 7.0 0.00 0.01 0.00 53 1024.7
20170918144516 46 199 2.0 7.0 0.00 0.01 0.00 54 1024.0
20170918143516 45 187 3.0 7.0 0.00 0.01 0.00 55 1023.4
20170918142516 45 160 2.0 6.0 0.00 0.01 0.00 56 1023.4
20170918141516 44 143 0.0 3.0 0.00 0.01 0.00 58 1023.5
20170918140516 43 156 1.0 3.0 0.00 0.01 0.00 59 1023.4
20170918135516 43 192 1.0 2.0 0.00 0.01 0.00 58 1023.3
20170918134516 43 205 1.0 3.0 0.00 0.01 0.00 59 1023.4
20170918133516 44 196 2.0 4.0 0.00 0.01 0.00 59 1023.3
20170918132516 43 171 0.0 3.0 0.00 0.01 0.00 59 1023.3
20170918131516 43 200 0.0 3.0 0.00 0.01 0.00 59 1023.9
20170918130516 44 187 2.0 4.0 0.00 0.01 0.00 59 1023.8
20170918125516 44 158 0.0 2.0 0.00 0.01 0.00 57 1024.2
20170918124516 44 158 0.0 3.0 0.00 0.01 0.00 57 1024.9
20170918123516 44 164 0.0 2.0 0.00 0.01 0.00 57 1025.4
20170918122516 44 164 0.0 3.0 0.00 0.01 0.00 57 1026.0
20170918121516 44 185 0.0 3.0 0.00 0.01 0.00 57 1025.3
20170918120517 44 181 1.0 4.0 0.00 0.01 0.00 58 1025.3
20170918115516 44 181 0.0 7.0 0.00 0.01 0.00 59 1024.5